• In Hungary
  • List of Countries
  • For 7 days
  • Water Temperature
  • Satellite Maps
  • Weather Map
  • News
  • Weather Widgets
  • user-avatar
    Login

    Hourly Weather Kadcza

    Today, 20 October, Saturday

    Time Temperature Precipitation Wind Pressure Humidity
    00:00 +9°C° 0 mm 1 mps 738 mmHg 92%
    01:00 +9°C° 0 mm 1 mps 738 mmHg 94%
    02:00 +9°C° 0 mm 1 mps 738 mmHg 94%
    03:00 +9°C° 0 mm 1 mps 738 mmHg 95%
    04:00 +9°C° 0 mm 1 mps 738 mmHg 95%
    05:00 +9°C° 0 mm 1 mps 738 mmHg 95%
    06:00 +9°C° 0 mm 1 mps 738 mmHg 94%
    07:00 +9°C° 0 mm 1 mps 738 mmHg 94%
    08:00 +11°C° 0 mm 1 mps 738 mmHg 87%
    09:00 +12°C° 0 mm 1 mps 738 mmHg 80%
    10:00 +14°C° 0 mm 1 mps 738 mmHg 74%
    11:00 +14°C° 0 mm 2 mps 738 mmHg 71%
    12:00 +15°C° 0 mm 2 mps 738 mmHg 69%
    13:00 +15°C° 0 mm 2 mps 738 mmHg 67%
    14:00 +15°C° 0 mm 2 mps 738 mmHg 70%
    15:00 +14°C° 0 mm 2 mps 737 mmHg 73%
    16:00 +13°C° 0 mm 2 mps 737 mmHg 76%
    17:00 +13°C° 0.1 mm 2 mps 737 mmHg 80%
    18:00 +12°C° 0.1 mm 2 mps 737 mmHg 84%
    19:00 +10°C° 0.1 mm 2 mps 737 mmHg 88%
    20:00 +10°C° 0.4 mm 2 mps 737 mmHg 89%
    21:00 +10°C° 0.4 mm 3 mps 737 mmHg 89%
    22:00 +10°C° 0.4 mm 3 mps 737 mmHg 90%
    23:00 +9°C° 0.7 mm 3 mps 737 mmHg 89%

    Tomorrow, 21 October, Sunday

    Time Temperature Precipitation Wind Pressure Humidity
    00:00 +9°C° 0.7 mm 3 mps 737 mmHg 89%
    01:00 +8°C° 0.7 mm 3 mps 737 mmHg 89%
    02:00 +8°C° 1.3 mm 3 mps 737 mmHg 89%
    03:00 +7°C° 1.3 mm 3 mps 737 mmHg 90%
    04:00 +7°C° 1.3 mm 3 mps 737 mmHg 91%
    05:00 +7°C° 0.9 mm 3 mps 737 mmHg 91%
    06:00 +7°C° 0.9 mm 3 mps 737 mmHg 91%
    07:00 +7°C° 0.9 mm 3 mps 737 mmHg 91%
    08:00 +8°C° 0.2 mm 3 mps 738 mmHg 88%
    09:00 +7°C° 0.2 mm 4 mps 738 mmHg 84%
    10:00 +8°C° 0.2 mm 4 mps 738 mmHg 81%
    11:00 +8°C° 0 mm 4 mps 738 mmHg 77%
    12:00 +10°C° 0 mm 4 mps 738 mmHg 73%
    13:00 +11°C° 0 mm 4 mps 738 mmHg 69%
    14:00 +10°C° 0 mm 3 mps 739 mmHg 71%
    15:00 +10°C° 0 mm 3 mps 739 mmHg 72%
    16:00 +10°C° 0 mm 3 mps 739 mmHg 73%
    17:00 +9°C° 0 mm 2 mps 739 mmHg 77%
    18:00 +8°C° 0 mm 2 mps 739 mmHg 81%
    19:00 +6°C° 0 mm 2 mps 740 mmHg 84%
    20:00 +7°C° 0 mm 1 mps 740 mmHg 86%
    21:00 +7°C° 0 mm 1 mps 740 mmHg 87%
    22:00 +6°C° 0 mm 1 mps 740 mmHg 88%
    23:00 +6°C° 0 mm 1 mps 740 mmHg 88%

    Day after tomorrow, 22 October, Monday

    Time Temperature Precipitation Wind Pressure Humidity
    00:00 +6°C° 0 mm 1 mps 739 mmHg 88%
    01:00 +6°C° 0 mm 1 mps 739 mmHg 88%
    02:00 +5°C° 0 mm 1 mps 739 mmHg 89%
    03:00 +5°C° 0 mm 1 mps 739 mmHg 89%
    04:00 +5°C° 0 mm 1 mps 739 mmHg 89%
    05:00 +5°C° 0 mm 1 mps 739 mmHg 88%
    06:00 +5°C° 0 mm 1 mps 739 mmHg 87%
    07:00 +4°C° 0 mm 0 mps 739 mmHg 86%
    08:00 +7°C° 0 mm 1 mps 739 mmHg 78%
    09:00 +9°C° 0 mm 1 mps 739 mmHg 70%
    10:00 +11°C° 0 mm 1 mps 739 mmHg 62%
    11:00 +12°C° 0 mm 1 mps 738 mmHg 59%
    12:00 +13°C° 0 mm 1 mps 738 mmHg 56%
    13:00 +13°C° 0 mm 1 mps 738 mmHg 52%
    14:00 +12°C° 0 mm 1 mps 737 mmHg 56%
    15:00 +12°C° 0 mm 1 mps 737 mmHg 61%
    16:00 +11°C° 0 mm 1 mps 737 mmHg 65%
    17:00 +9°C° 0 mm 1 mps 737 mmHg 69%
    18:00 +8°C° 0 mm 1 mps 737 mmHg 73%
    19:00 +7°C° 0 mm 1 mps 737 mmHg 76%
    20:00 +7°C° 0 mm 1 mps 737 mmHg 77%
    21:00 +6°C° 0 mm 1 mps 737 mmHg 78%
    22:00 +6°C° 0 mm 1 mps 737 mmHg 79%
    23:00 +6°C° 0 mm 1 mps 737 mmHg 80%

    23 October, Tuesday

    Time Temperature Precipitation Wind Pressure Humidity
    00:00 +5°C° 0 mm 1 mps 737 mmHg 80%
    01:00 +4°C° 0 mm 2 mps 736 mmHg 81%
    02:00 +4°C° 0 mm 2 mps 736 mmHg 81%
    03:00 +4°C° 0 mm 2 mps 736 mmHg 82%
    04:00 +4°C° 0 mm 2 mps 736 mmHg 83%
    05:00 +5°C° 0.3 mm 2 mps 736 mmHg 84%
    06:00 +5°C° 0.3 mm 2 mps 736 mmHg 86%
    07:00 +5°C° 0.3 mm 3 mps 737 mmHg 87%
    08:00 +5°C° 0 mm 3 mps 737 mmHg 83%
    09:00 +7°C° 0 mm 3 mps 737 mmHg 78%
    10:00 +7°C° 0 mm 3 mps 737 mmHg 74%
    11:00 +8°C° 0 mm 3 mps 736 mmHg 70%
    12:00 +8°C° 0 mm 3 mps 736 mmHg 65%
    13:00 +9°C° 0 mm 3 mps 735 mmHg 60%
    14:00 +8°C° 0 mm 3 mps 735 mmHg 62%
    15:00 +8°C° 0 mm 3 mps 734 mmHg 65%
    16:00 +7°C° 0 mm 2 mps 733 mmHg 67%
    17:00 +5°C° 0 mm 3 mps 733 mmHg 69%
    18:00 +5°C° 0 mm 3 mps 732 mmHg 71%
    19:00 +4°C° 0 mm 3 mps 731 mmHg 73%
    20:00 +4°C° 0.2 mm 4 mps 730 mmHg 74%
    21:00 +5°C° 0.2 mm 4 mps 729 mmHg 74%
    22:00 +5°C° 0.2 mm 4 mps 728 mmHg 75%
    23:00 +5°C° 0.5 mm 5 mps 727 mmHg 77%

    24 October, Wednesday

    Time Temperature Precipitation Wind Pressure Humidity
    00:00 +5°C° 0.5 mm 5 mps 726 mmHg 79%
    01:00 +5°C° 0.5 mm 6 mps 724 mmHg 81%
    02:00 +5°C° 0.5 mm 6 mps 724 mmHg 82%
    03:00 +7°C° 0.5 mm 6 mps 723 mmHg 84%
    04:00 +7°C° 0.5 mm 6 mps 722 mmHg 86%
    05:00 +7°C° 1.1 mm 6 mps 722 mmHg 85%
    06:00 +7°C° 1.1 mm 6 mps 722 mmHg 83%
    07:00 +7°C° 1.1 mm 6 mps 722 mmHg 82%
    08:00 +6°C° 0.5 mm 7 mps 722 mmHg 78%
    09:00 +5°C° 0.5 mm 8 mps 723 mmHg 74%
    10:00 +5°C° 0.5 mm 9 mps 723 mmHg 69%
    11:00 +4°C° 0.1 mm 8 mps 724 mmHg 65%
    12:00 +4°C° 0.1 mm 8 mps 725 mmHg 60%
    13:00 +4°C° 0.1 mm 8 mps 725 mmHg 55%
    14:00 +4°C° 0.1 mm 7 mps 726 mmHg 56%
    15:00 +3°C° 0.1 mm 7 mps 726 mmHg 56%
    16:00 +3°C° 0.1 mm 6 mps 727 mmHg 56%
    17:00 +2°C° 0 mm 5 mps 727 mmHg 58%
    18:00 +2°C° 0 mm 5 mps 727 mmHg 60%
    19:00 +3°C° 0 mm 4 mps 728 mmHg 62%
    20:00 +1°C° 0 mm 4 mps 728 mmHg 64%
    21:00 +1°C° 0 mm 4 mps 728 mmHg 66%
    22:00 0°C° 0 mm 4 mps 728 mmHg 68%
    23:00 +1°C° 0 mm 3 mps 729 mmHg 69%

    25 October, Thursday

    Time Temperature Precipitation Wind Pressure Humidity
    00:00 +1°C° 0 mm 3 mps 729 mmHg 70%
    01:00 0°C° 0 mm 3 mps 729 mmHg 71%
    02:00 0°C° 0 mm 3 mps 729 mmHg 74%
    03:00 0°C° 0 mm 3 mps 729 mmHg 76%
    04:00 +1°C° 0 mm 2 mps 729 mmHg 78%
    05:00 0°C° 0 mm 3 mps 729 mmHg 79%
    06:00 +1°C° 0 mm 3 mps 729 mmHg 80%
    07:00 +2°C° 0 mm 3 mps 730 mmHg 81%
    08:00 +3°C° 0 mm 3 mps 730 mmHg 75%
    09:00 +5°C° 0 mm 4 mps 730 mmHg 70%
    10:00 +6°C° 0 mm 4 mps 730 mmHg 64%
    11:00 +6°C° 0.2 mm 4 mps 729 mmHg 69%
    12:00 +7°C° 0.2 mm 3 mps 729 mmHg 74%
    13:00 +7°C° 0.2 mm 3 mps 729 mmHg 80%
    14:00 +8°C° 0.4 mm 3 mps 728 mmHg 82%
    15:00 +8°C° 0.4 mm 3 mps 728 mmHg 85%
    16:00 +7°C° 0.4 mm 4 mps 728 mmHg 88%
    17:00 +7°C° 0.2 mm 4 mps 728 mmHg 88%
    18:00 +7°C° 0.2 mm 4 mps 728 mmHg 89%
    19:00 +7°C° 0.2 mm 4 mps 729 mmHg 89%
    20:00 +7°C° 0.1 mm 4 mps 729 mmHg 89%
    21:00 +7°C° 0.1 mm 4 mps 729 mmHg 90%
    22:00 +6°C° 0.1 mm 4 mps 729 mmHg 90%
    23:00 +6°C° 0 mm 4 mps 729 mmHg 90%
    Show more